Flag for Brazil Weather past 2 weeks in Joinville, Santa Catarina, Brazil

Now
81 °F

Passing clouds.


Feels Like: 82 °F
Forecast: N/A
Wind: 8 mph from West

Location: Curitiba Aeroporto

Current Time: Dec 27, 2014 at 7:35:19 PM

Latest Report: Dec 27, 2014 at 7:00 PM


Visibility: N/A

Pressure: 30.07 "Hg

Humidity: 58%

Dew point: 64 °F

Location of JoinvilleLocation

Historic Weather in Joinville — Graph

°F

Joinville temperature yesterday

Maximum temperature yesterday: 86 °F (at 3:00 PM)
Minimum temperature yesterday: 45 °F (at 4:00 PM)
Average temperature yesterday: 69 °F

Past Weeks' High & Low Weather Summary

 TemperatureHumidityPressure
High86 °F (Dec 26, 3:00 PM)100% (Dec 22, 9:00 AM)30.24 "Hg (Dec 22, 9:00 AM)
Low45 °F (Dec 26, 4:00 PM)28% (Dec 26, 8:00 PM)29.80 "Hg (Dec 13, 5:00 PM)
Average68 °F81%30.03 "Hg
* Reported Dec 12 6:00 PM — Dec 27 6:00 PM, Joinville, Weather by CustomWeather, © 2014

Note: Actual official high and low records may vary slightly from our data, if they occured in-between our weather recording intervals... More about our weather records

Advertising

Joinville weather history for previous 24 hours

 ConditionsComfort  
Time TempWeatherWind HumidityBarometerVisibility
6:00 PM
Dec 27
81 °FPassing clouds.12 mph58%30.04 "HgN/A
5:00 PM81 °FPassing clouds.12 mph58%30.04 "HgN/A
4:00 PM84 °FPartly sunny.21 mph45%30.07 "HgN/A
3:00 PM84 °FPartly sunny.20 mph51%30.09 "HgN/A
2:00 PM84 °FScattered clouds.12 mph51%30.09 "HgN/A
1:00 PM82 °FScattered clouds.12 mph55%30.12 "HgN/A
12:00 PM79 °FSunny.2 mph65%30.12 "Hg10 mi
11:00 AM77 °FScattered clouds.7 mph69%30.12 "HgN/A
10:00 AM73 °FScattered clouds.5 mph83%30.12 "HgN/A
9:00 AM72 °FBroken clouds.3 mph88%30.12 "HgN/A
8:00 AM70 °FPartly sunny.3 mph94%30.12 "Hg5 mi
7:00 AM68 °FFog.1 mph94%30.12 "Hg2 mi
6:00 AM68 °FPassing clouds.1 mph94%30.12 "HgN/A
5:00 AM68 °FPassing clouds.6 mph94%30.09 "HgN/A
4:00 AM68 °FPassing clouds.3 mph94%30.12 "HgN/A
3:00 AM66 °FPassing clouds.2 mph94%30.15 "HgN/A
2:00 AM68 °FPassing clouds.8 mph94%30.15 "HgN/A
1:00 AM68 °FPassing clouds.5 mph94%30.21 "Hg5 mi
12:00 AM68 °FPassing clouds.6 mph94%30.21 "Hg4 mi
11:00 PM
Dec 26
66 °FPartly cloudy.3 mph94%30.21 "HgN/A
10:00 PM68 °FLight rain. Passing clouds.5 mph88%N/AN/A
9:00 PM68 °FThundershowers. Passing clouds.1 mph88%30.15 "HgN/A
8:00 PM68 °FThunderstorms. Broken clouds.2 mph28%30.15 "HgN/A
7:00 PM68 °FBroken clouds.2 mph88%30.15 "HgN/A
Weather by CustomWeather, © 2014

See weather overviewHow to use our weather pages